Regional Weather Roundup
Issued by NWS

Home | Current Version | Previous Version | Graphics & Text | Print | Product List | Glossary On
Versions: 1 2 3 4 5 6 7 8 9 10 11 12 13 14 15 16 17 18 19 20 21 22 23 24 25 26 27 28 29 30 31 32 33 34 35 36 37 38 39 40 41 42 43 44 45 46 47 48 49 50
000
ASUS43 KMPX 301501
RWRMN
WEATHER ROUNDUP FOR MINNESOTA
NATIONAL WEATHER SERVICE TWIN CITIES/CHANHASSEN MN
1000 AM CDT THU JUL 30 2015


NOTE: "FAIR" INDICATES FEW OR NO CLOUDS BELOW 12,000 FEET WITH NO
SIGNIFICANT WEATHER AND/OR OBSTRUCTIONS TO VISIBILITY. N/A MEANS
CURRENT SKY AND/OR WEATHER CONDITIONS ARE NOT AVAILABLE.

MNZ060>063-068>070-301600-
   Twin Cities Metro

CITY           SKY/WX    TMP DP  RH WIND       PRES   REMARKS
TWIN CITIES    SUNNY     77  56  48 W10       30.04R
ST PAUL        SUNNY     77  57  50 W13       30.03S
CRYSTAL        SUNNY     76  57  51 W12       30.03R
BLAINE         SUNNY     75  57  53 W9        30.03S
LAKEVILLE      SUNNY     73  57  56 W7        30.06S
EDEN PRAIRIE   SUNNY     75  57  53 W10       30.04S
SOUTH ST PAUL  SUNNY     76  56  50 W9        30.03S
LAKE ELMO      FAIR      75  59  57 W9        30.04S
$$
MNZ001>005-007-008-013>017-022>024-027-028-301600-
   Northwest Minnesota

CITY           SKY/WX    TMP DP  RH WIND       PRES   REMARKS
BEMIDJI        SUNNY     71  58  64 W10       30.00S
HALLOCK        MOSUNNY   72  57  60 W15       29.96S
ROSEAU         SUNNY     70  61  73 W8        29.94S
WARROAD        SUNNY     66  61  82 W10       29.93F
THIEF RVR FALL MOSUNNY   70  57  64 W12       30.00S
CROOKSTON      PTSUNNY   72  59  64 W13       30.02S
FOSSTON        MOSUNNY   70  57  64 W13       30.03R
DETROIT LAKES  SUNNY     70  55  60 NW13G18   30.07R
MOORHEAD       SUNNY     72  59  64 NW10G17   30.07R
PARK RAPIDS    SUNNY     73  58  59 W13       30.03R
MAHNOMEN       FAIR      67  58  70 W13       30.04R
$$
MNZ006-009>011-018-025>026-301600-
   North Central Minnesota

CITY           SKY/WX    TMP DP  RH WIND       PRES   REMARKS
BAUDETTE       MOSUNNY   68  59  73 SW9       29.92F
FLAG ISLAND    MOSUNNY   66  55  68 W7        29.90S
INTL FALLS     CLOUDY    67  57  70 W9        29.93R
WASKISH        SUNNY     70  61  73 SW10      29.95F
BIG FORK       SUNNY     72  61  68 SW10      29.96S
LONGVILLE      SUNNY     72  61  68 W8        30.00S
GRAND RAPIDS   SUNNY     70  55  60 W10       29.98S
CRANE LAKE     SUNNY     66  54  63 W5        29.94S
ORR            PTSUNNY   70  52  52 CALM      29.91F
COOK           MOSUNNY   68  55  64 W6        29.95S
WALKER         FAIR      69  58  67 W12       30.00S
$$
MNZ012-019>021-037-301600-
   Northeast Minnesota

CITY           SKY/WX    TMP DP  RH WIND       PRES   REMARKS
DULUTH         MOSUNNY   74  58  57 W14       29.96S
ELY            SUNNY     68  54  60 W9        29.93R
HIBBING        SUNNY     72  58  61 W12       29.96S
EVELETH        SUNNY     72  55  56 W10       29.96S
DULUTH HARBOR  SUNNY     75  61  60 W13       29.95S
TWO HARBORS    SUNNY     75  61  60 W5        29.92S
SILVER BAY     SUNNY     75  54  46 W6        29.90S
GRAND MARAIS     N/A     74  53  48 VRB3G22   29.84S
G MARAIS ARPRT SUNNY     66  48  52 W10G23    29.89R
$$
MNZ029>031-032-039>041-046>048-054>057-064-301600-
   West Central Minnesota

CITY           SKY/WX    TMP DP  RH WIND       PRES   REMARKS
FERGUS FALLS   SUNNY     70  57  64 W10       30.07S
WHEATON        SUNNY     73  57  56 W9        30.10R
MORRIS         SUNNY     73  59  60 W10       30.08S
ALEXANDRIA     SUNNY     71  58  63 W9        30.09R
ELBOW LAKE     FAIR      69  58  68 W9        30.08R
WADENA         SUNNY     72  57  60 W10       30.05R
GLENWOOD       SUNNY     72  57  60 W14       30.09S
APPLETON       SUNNY     75  57  53 W8        30.09S
BENSON         SUNNY     75  55  50 N7        30.09S
ORTONVILLE     SUNNY     75  59  57 W6        30.10R
MADISON        SUNNY     77  57  50 W8        30.10S
WILLMAR        FAIR      73  61  64 W9        30.11S
$$
MNZ033>034-036-042>043-049>051-058-059-301600-
   Central Minnesota

CITY           SKY/WX    TMP DP  RH WIND       PRES   REMARKS
ST CLOUD       SUNNY     75  58  55 W12       30.05R
SAUK CENTRE    FAIR      72  60  67 W10       30.07S
PAYNESVILLE    SUNNY     72  57  60 SW8       30.08S
AITKIN         SUNNY     75  61  60 W6        29.99S
PINE RIVER     SUNNY     72  59  64 W8G16     30.04S
BRAINERD       SUNNY     73  57  57 W12       30.02R
STAPLES        SUNNY     72  57  60 W12       30.04S
LONG PRAIRIE   FAIR      72  57  60 W12       30.07R
LITTLE FALLS   SUNNY     72  55  56 W8        30.05R
LITCHFIELD     SUNNY     73  61  64 W9        30.08S
BUFFALO        SUNNY     73  58  58 W7        30.06S
$$
MNZ037-044-045-052-053-301600-
   East Central Minnesota

CITY           SKY/WX    TMP DP  RH WIND       PRES   REMARKS
PRINCETON      SUNNY     73  59  60 W9        30.04S
MORA           SUNNY     73  57  56 NW8       30.03S
CAMBRIDGE      SUNNY     75  59  57 W7        30.01S
RUSH CITY      SUNNY     73  60  64 W8        30.02S
MOOSE LAKE     SUNNY     72  59  64 W7        29.97F
HINCKLEY       FAIR      73  61  64 W10       30.00S
CLOQUET        SUNNY     73  54  49 W8        29.97S
MCGREGOR       SUNNY     72  59  64 W8        30.00R
$$
MNZ071>073-080-081-089-090-097-098-301600-
   Southwest Minnesota

CITY           SKY/WX    TMP DP  RH WIND       PRES   REMARKS
MONTEVIDEO     SUNNY     79  63  57 NW6       30.11S
GRANITE FALLS  SUNNY     74  60  59 W9        30.13R
CANBY          SUNNY     77  56  48 W10       30.13S
MARSHALL       SUNNY     77  55  47 NW12      30.13S
REDWOOD FALLS  SUNNY     76  58  53 NW9       30.10R
OLIVIA         SUNNY     72  59  64 NW7       30.09S
PIPESTONE      SUNNY     73  55  53 NW8       30.15S
WINDOM         SUNNY     77  61  57 W8        30.13S
WORTHINGTON    SUNNY     73  57  56 W9        30.14S
JACKSON        SUNNY     77  61  57 W9        30.14S
TRACY          SUNNY     77  59  53 W5        30.12F
SLAYTON        SUNNY     76  56  49 CALM      30.15S
$$
MNZ065>067-074>077-082>085-091>093-301600-
   South Central Minnesota

CITY           SKY/WX    TMP DP  RH WIND       PRES   REMARKS
MANKATO        SUNNY     73  57  56 W13       30.09S
NEW ULM        SUNNY     75  55  50 W14       30.09F
ST JAMES       SUNNY     79  61  53 W12G18    30.11S
FAIRMONT       SUNNY     77  57  50 W8        30.11S
GLENCOE        SUNNY     74  61  63 W8        30.07S
FARIBAULT      SUNNY     75  59  57 W8        30.08S
OWATONNA       SUNNY     73  57  56 W8        30.08F
WASECA         SUNNY     72  61  68 W6        30.10S
ALBERT LEA     SUNNY     75  59  57 W5        30.10S
$$
MNZ078>079-086>088-094>096-301600-
   Southeast Minnesota

CITY           SKY/WX    TMP DP  RH WIND       PRES   REMARKS
ROCHESTER      SUNNY     74  60  61 W9        30.09F
RED WING       SUNNY     79  55  44 W10       30.02F
STANTON        SUNNY     75  57  53 W7G16     30.05S
DODGE CENTER   SUNNY     73  57  56 W10G18    30.09S
WINONA         SUNNY     77  55  47 W8        30.05S
AUSTIN         SUNNY     77  55  47 W12G17    30.09F
PRESTON        SUNNY     75  57  53 W10       30.09S
$$
ABBREVIATIONS USED IN REMARKS
   TC - TEMPERATURES IN CELSIUS
  WCI - WIND CHILL INDEX
   HX - HEAT INDEX
  VSB - VISIBILITY
$$


USA.gov is the U.S. government's official web portal to all federal, state and local government web resources and services.